A/2021 X2

Japanese version
Home page
Updated on September 11, 2022

---------------------------------------------------------------------

* Profile

Discovery Date December 1, 2021
Magnitude 21.6 mag
Discoverer Kitt Peak-Bok

* Orbital Elements

Epoch 2022 Aug. 9.0 TT = JDT 2459800.5
T 2022 July 8.16261 TT                                  Rudenko
q   2.9945513            (2000.0)            P               Q
z  -0.0004836      Peri.  193.28627     +0.76783236     +0.38543916
 +/-0.0000035      Node   228.79918     +0.63219766     -0.32653124
e   1.0014482      Incl.  137.14631     +0.10372847     -0.86302607
H   16.0
From 54 observations 2021 Oct. 30-2022 Sept. 8, mean residual 0".2.

* Magnitudes Graph

        H = 16.0  G = 0.15

---------------------------------------------------------------------

The orbital elements are published on M.P.E.C. 2022-R139.
The magnitudes graphs are made with Comet for Windows.

---------------------------------------------------------------------

Copyright(C) Seiichi Yoshida (comet@aerith.net). All rights reserved.